EAA8460 SBCN-SBLO

Flight info

Callsign EAA8460
Flight time N/A
Altitude 34000
Route GIDVO DCT KOVAX UM532 GEKEM DCT KOTEG
Aircraft B738/M-SDE2E3FGHIRWXY/LB1

Departure

Time 2026-05-04 18:22
Airport Nelson Ribeiro Guimarães Airport (SBCN)

Arrival

Time N/A
Airport Governor José Richa Airport (SBLO)
Time Latitude Longitude Altitude Speed Heading
2026-05-04 18:16 -17.72544 -48.61282 2306 ft 0 kts 71°
2026-05-04 18:17 -17.72543 -48.61277 2305 ft 6 kts 70°
2026-05-04 18:18 -17.72503 -48.61253 2304 ft 7 kts
2026-05-04 18:18 -17.72477 -48.61289 2305 ft 7 kts 265°
2026-05-04 18:18 -17.72508 -48.61326 2303 ft 7 kts 221°
2026-05-04 18:18 -17.72544 -48.61357 2307 ft 7 kts 219°
2026-05-04 18:19 -17.72619 -48.61409 2311 ft 7 kts 195°
2026-05-04 18:19 -17.72655 -48.61408 2313 ft 0 kts 168°
2026-05-04 18:20 -17.72754 -48.61379 2308 ft 18 kts 163°
2026-05-04 18:20 -17.72826 -48.61428 2311 ft 14 kts 240°
2026-05-04 18:20 -17.72883 -48.61498 2319 ft 10 kts 213°
2026-05-04 18:21 -17.72898 -48.61526 2323 ft 3 kts 281°
2026-05-04 18:21 -17.72883 -48.61536 2319 ft 3 kts 356°
2026-05-04 18:21 -17.72869 -48.61519 2315 ft 11 kts 63°
2026-05-04 18:21 -17.72686 -48.61062 2297 ft 122 kts 65°
2026-05-04 18:22 -17.72214 -48.59948 2315 ft 205 kts 66°
2026-05-04 18:22 -17.71697 -48.58577 3543 ft 208 kts 73°
2026-05-04 18:22 -17.71691 -48.56927 4154 ft 246 kts 105°
2026-05-04 18:22 -17.72459 -48.55292 5108 ft 259 kts 129°
2026-05-04 18:23 -17.73882 -48.54096 5896 ft 271 kts 156°
2026-05-04 18:23 -17.75710 -48.53730 6947 ft 275 kts 184°
2026-05-04 18:23 -17.77532 -48.54319 8099 ft 278 kts 210°
2026-05-04 18:23 -17.79105 -48.55521 9198 ft 282 kts 220°
2026-05-04 18:24 -17.80596 -48.56890 10234 ft 289 kts 222°
2026-05-04 18:24 -17.82157 -48.58355 10734 ft 316 kts 222°
2026-05-04 18:24 -17.83891 -48.59946 10967 ft 347 kts 221°
2026-05-04 18:24 -17.85793 -48.61652 11358 ft 368 kts 220°
2026-05-04 18:25 -17.87774 -48.63410 12150 ft 376 kts 220°
2026-05-04 18:25 -17.89749 -48.65221 13057 ft 379 kts 223°
2026-05-04 18:25 -17.91662 -48.67153 13923 ft 383 kts 225°
2026-05-04 18:25 -17.93557 -48.69144 14742 ft 388 kts 225°
2026-05-04 18:26 -17.95469 -48.71172 15546 ft 393 kts 225°
2026-05-04 18:26 -17.97403 -48.73220 16326 ft 397 kts 225°
2026-05-04 18:26 -17.99367 -48.75289 17078 ft 402 kts 225°
2026-05-04 18:26 -18.01356 -48.77373 17786 ft 407 kts 225°
2026-05-04 18:27 -18.03374 -48.79480 18479 ft 411 kts 225°
2026-05-04 18:27 -18.05415 -48.81607 19166 ft 415 kts 225°
2026-05-04 18:27 -18.07476 -48.83753 19838 ft 419 kts 225°